7 * 24
多渠道服务支持
NAVSTAR 10(USA 5),又名GPS I-10、GPS SVN-10,是美国于1984年9月8日在范登堡空军基地发射的导航试验卫星,隶属于全球定位系统(GPS)研发项目,是11颗Block I型GPS卫星中的第10颗。该卫星由Atlas E/F运载火箭发射升空,进入转移轨道后利用Star-27远地点发动机进入中地球轨道,为GPS系统早期技术验证与定位服务测试提供了关键支撑。
美国
(US)
| 数据来源 | 国际轨道数据 |
| 星历时间: | 2026-06-11T18:23:47+0800 1天前 查看轨道信息 |
| 半长轴: | 27285.751km |
| 偏心率: | 0.0148889 |
| 轨道倾角: | 62.145° |
| 近地点辐角 | 226.893° |
| 升交点赤经 | 291.117° |
| 平近点角 | 113.470° |
| 近地点: | 20501.359km |
| 远地点: | 21313.869km |
| 周期: | 747.590分钟 |
| 每日圈数: | 1.926189 |